a3-freunde - Die Audi A3 Community

Allgemeine Fragen (8P)


Titel Antworten Hits Letzter Beitrag
[8P] Handschuhfach Bremselement ausbauen & instandsetzen 12 10.224 30.4.2017 18:31
[8P] Kühlwasserverlust 12 1.098 29.4.2017 21:08
[8P] Serviceanzeige 6 533 27.4.2017 13:33
[8P] Riemenscheibe am Klimakompressor austauschen. 3 1.072 27.4.2017 8:16
[8P] Kilometerstand per VCDS 3 471 27.4.2017 6:30
[8P] Kosten LongLife Ölwechselservice 2,0 TDI 8 11.607 26.4.2017 19:46
[8P] 2.0 TDI 2005 RS3 Front oder Grill Frage 0 268 25.4.2017 17:48
[8P] Fehler Kombiinstrument ;/ 15 776 25.4.2017 14:32
[8P] Öltemperatur 2 373 25.4.2017 11:25
[8P] Kaufberatung Audi A3 8Pa 2.0 Tdi 140 PS 5 400 24.4.2017 21:33
[8P] 2.0 TDI CFFB AGR Kühler Problem 5 1.365 24.4.2017 10:09
[8P] PR-Codes im Service-Heft unvollständig 2 316 23.4.2017 20:41
[8P] Heckscheibenwischer läuft dauerhaft 9 1.930 23.4.2017 6:09
[8P] Spiel Prüfen 0 250 22.4.2017 19:39
[8P] 7M0129808 Unterdruckbehälter schon mal defekt? 0 265 21.4.2017 19:09
[8P] audi s3 8p frontstoßstange 3 382 21.4.2017 3:17
[8P] Vogtland Gewindefahrwerk 2 412 20.4.2017 20:14
[8P] Wasserpumpe und Simmerring kaputt, wie aufwendig ? 2 426 20.4.2017 12:46
[8P] S3 Grill defekt 13 1.642 20.4.2017 10:14
[8P] Innenleuchte gewechselt - leuchtet nicht komplett 1 325 19.4.2017 17:18
[8P] Styling Motorhaube A3 8P 2 447 19.4.2017 14:51
[8P] Heckdiffusor A3/S3 Was gibt es mittlerweile? 9 1.142 19.4.2017 14:50
[8P] S3 AGA ohne MSD, bitte antworten! 4 350 18.4.2017 19:44
[8P] Unterdruck überprüfen und Turbo Fragen 0 308 18.4.2017 19:14
[8P] Longlife EDGE - LL - was nehmen? 1 455 18.4.2017 18:23
[8P] Coming Home und Leaving Home 2 466 17.4.2017 9:16
[8P] OBD Fehlerspeicher auch bei niedrigem Ölstand? 1 354 16.4.2017 20:20
[8P] Totale Zerstörung durch Kurzsichtige Oma 16 1.317 13.4.2017 7:43
[8P] 1.4 TFSI CAXA Turbolader Reparatursatz verbaut - Bericht 3 1.435 12.4.2017 10:34
[8P] Frontstossstange 4 3.634 12.4.2017 6:19


© a3-freunde.de 2003-2016
64.117 Mitglieder    129 online